Regional Weather Roundup
Issued by NWS

Home | Current Version | Previous Version | Graphics & Text | Print | Product List | Glossary On
Versions: 1 2 3 4 5 6 7 8 9 10 11 12 13 14 15 16 17 18 19 20 21 22 23 24 25 26 27 28 29 30 31 32 33 34 35 36 37 38 39 40 41 42 43 44 45 46 47 48 49 50
000
ASUS43 KFSD 310510
RWRSD

WEATHER ROUNDUP FOR SOUTH DAKOTA
NATIONAL WEATHER SERVICE SIOUX FALLS SD
1200 AM CDT MON AUG 31 2015

NOTE: "FAIR" INDICATES FEW OR NO CLOUDS BELOW 12,000 FEET WITH NO
SIGNIFICANT WEATHER AND/OR OBSTRUCTIONS TO VISIBILITY.


SDZ001>005-009-010-012>017-310600-
NORTHWEST AND NORTH CENTRAL SOUTH DAKOTA

CITY           SKY/WX    TMP DP  RH WIND       PRES   REMARKS
BUFFALO          N/A     69  54  58 NE8       29.66F
FAITH            N/A     85  46  25 CALM      29.66F
MOBRIDGE       PTCLDY    78  60  53 S16       29.65S
$$

SDZ012>016-024>037-041>051-057-063-072>074-310600-
SOUTHWEST AND SOUTH CENTRAL SOUTH DAKOTA

CITY           SKY/WX    TMP DP  RH WIND       PRES   REMARKS
RAPID CTY ARPT PTCLDY    71  57  61 NW10      29.75F
PIERRE         CLEAR     75  57  53 SE14      29.70S
CUSTER         MOCLDY    68  45  43 SW6       29.97R
ELLSWORTH AFB  PTCLDY    68  59  72 W8        29.74F
PHILIP         MOCLDY    78  55  44 S7        29.71S
PINE RIDGE     PTCLDY    80  45  28 S12       29.81S
WINNER         FAIR      77  59  53 S23G32    29.77R
$$

SDZ004>011-016>023-039-040-310600-
NORTHEAST SOUTH DAKOTA

CITY           SKY/WX    TMP DP  RH WIND       PRES   REMARKS
ABERDEEN       CLEAR     70  64  81 S20G26    29.74S
WATERTOWN      CLEAR     66  63  90 S14       29.83S
BROOKINGS      CLOUDY    66  63  88 S16G22    29.90R
SISSETON         N/A     72  61  68 S18G29    29.75F
$$

SDZ017-020-022-023-036>040-048>070-310600-
SOUTHEAST SOUTH DAKOTA

CITY           SKY/WX    TMP DP  RH WIND       PRES   REMARKS
SIOUX FALLS    CLOUDY    67  64  90 S14       29.90F
HURON          CLEAR     69  65  86 S15       29.79R
CHAMBERLAIN    CLEAR     70  65  82 SE10      29.78S
MITCHELL       CLEAR     69  66  90 S18G25    29.83R
YANKTON        PTCLDY    66  64  94 S9        29.88F
$$

ABBREVIATIONS USED IN REMARKS
   TC - TEMPERATURE IN CELSIUS
  WCI - WIND CHILL INDEX
   HX - HEAT INDEX
  VSB - VISIBILITY



USA.gov is the U.S. government's official web portal to all federal, state and local government web resources and services.